Location: ??????
(41.3164°N, 22.6615°E)
Time: 01:15:24
(UTC+00:00)

H-2A R/B - Pass Details

Date: 16 October 2021
Orbit: 577 x 654 km, 98.5° (Epoch: 02 December)

Event Time Altitude Azimuth Distance (km) Brightness Sun altitude
Rises 18:14:05 0° 1° (N) 2,802 5.6 -28.3°
Reaches altitude 10° 18:16:29 10° 348° (NNW) 1,900 4.8 -28.7°
Maximum altitude 18:19:53 26° 292° (WNW) 1,170 4.1 -29.3°
Drops below altitude 10° 18:23:18 10° 236° (SW) 1,904 5.0 -30.0°
Sets 18:25:43 0° 223° (SW) 2,809 5.8 -30.4°
